User: anonymous   Login
Location: Unspecified
(0.0000°N, 0.0000°E)
Time: 19:37:48
(UTC+01:00)
Language:

ARIANE 5 R/B - Orbit

View from above orbital plane
View from above orbital plane
View from above satellite
View from above satellite

Ground track
Ground track

The orbit data is extracted from the following two-line orbital elements,

1 28787U 05028B   14303.41363015 -.00000041  00000-0  87198-3 0  5663
2 28787 007.2191 043.9319 7173772 197.4918 168.0275 02.26547037 76329
Epoch (UTC): 30 October 2014 09:55:37
Eccentricity: 0.7173772
inclination: 7.2191°
perigee height: 543 km
apogee height: 35677 km
right ascension of ascending node: 43.9319°
argument of perigee: 197.4918°
revolutions per day: 2.26547037
mean anomaly at epoch: 168.0275°
orbit number at epoch: 7632

The dashed part of the orbit path shows where the satellite is in the earth's shadow,  

DLR